Location: Fort Wayne
(41.1310°N, 85.1290°W)
Time: 16:46:18
(UTC-04:00)

Tiros 1 despin weight - Visible Passes

Search period start: 29 March 2015 00:00
Search period end: 08 April 2015 00:00
Orbit: 599 x 648 km, 48.2° (Epoch: 29 March)

Date Brightness Start Highest point End Pass type
(mag) Time Alt. Az. Time Alt. Az. Time Alt. Az.
29 Mar ? 20:37:26 10° SW 20:41:47 44° SE 20:46:06 10° ENE visible
29 Mar ? 22:19:01 10° W 22:23:28 51° NNW 22:23:57 49° N visible
30 Mar ? 20:55:24 10° SW 20:59:59 81° SSE 21:04:31 10° ENE visible
30 Mar ? 22:37:43 10° W 22:41:55 38° NNW 22:41:55 38° NNW visible
31 Mar ? 21:13:47 10° WSW 21:18:19 62° NNW 21:22:33 11° ENE visible
31 Mar ? 22:56:26 10° WNW 22:59:43 31° NNW 22:59:43 31° NNW visible
01 Apr ? 21:32:24 10° W 21:36:46 43° NNW 21:40:13 15° NE visible
01 Apr ? 23:15:01 10° WNW 23:17:24 25° NW 23:17:24 25° NW visible
02 Apr ? 21:51:06 10° WNW 21:55:18 35° N 21:57:49 20° NE visible
02 Apr ? 23:33:27 10° WNW 23:34:59 19° NW 23:34:59 19° NW visible
03 Apr ? 22:09:44 10° WNW 22:13:53 33° N 22:15:20 27° NE visible
03 Apr ? 23:51:46 10° WNW 23:52:30 14° NW 23:52:30 14° NW visible
04 Apr ? 20:45:44 10° W 20:50:02 38° NNW 20:54:17 10° ENE visible
04 Apr ? 22:28:14 10° WNW 22:32:26 36° N 22:32:48 35° NNE visible
05 Apr ? 21:04:24 10° WNW 21:08:35 33° N 21:12:42 10° ENE visible
05 Apr ? 22:46:35 10° WNW 22:50:13 41° NNW 22:50:13 41° NNW visible
06 Apr ? 21:22:57 10° WNW 21:27:09 34° N 21:30:28 14° ENE visible
06 Apr ? 23:04:50 10° WNW 23:07:38 36° NW 23:07:38 36° NW visible
07 Apr ? 21:41:22 10° WNW 21:45:40 39° NNE 21:47:52 24° ENE visible
07 Apr ? 23:23:05 10° WNW 23:25:02 25° WNW 23:25:02 25° WNW visible
